DW9727 Weather Reports


time (UTC)temp
C
wind
direction
speed
KPH
gust
KPH
rain 1hr
cm
rain 24hr
cm
rain mn
cm
humidity
%
barometer
mb
20260903035710 29 196 19.3 33.8 0.00 0.15 0.15 56 1006.0
20260903034711 29 196 20.9 38.6 0.00 0.15 0.15 56 1006.1
20260903033710 29 171 20.9 35.4 0.00 0.15 0.15 56 1006.1
20260903031711 29 184 22.5 35.4 0.00 0.15 0.15 56 1006.1
20260903030710 29 169 20.9 40.2 0.00 0.15 0.15 56 1006.0
20260903025710 29 180 20.9 32.2 0.00 0.15 0.15 57 1005.9
20260903023711 29 159 16.1 29.0 0.00 0.15 0.15 58 1005.8
20260903022711 29 168 16.1 24.1 0.00 0.15 0.15 59 1005.8
20260903021711 29 184 14.5 22.5 0.00 0.15 0.15 60 1005.7
20260903020711 30 175 11.3 20.9 0.00 0.15 0.15 60 1005.6
20260903015711 30 166 14.5 20.9 0.00 0.15 0.15 60 1005.6
20260903013711 30 159 11.3 20.9 0.00 0.15 0.15 62 1005.3
20260903012712 30 158 11.3 19.3 0.00 0.15 0.15 63 1005.5
20260903011711 31 163 9.7 19.3 0.00 0.15 0.15 63 1005.4
20260903010710 31 113 8.0 16.1 0.00 0.15 0.15 64 1005.3
20260903005711 31 121 4.8 12.9 0.00 0.15 0.15 64 1005.4
20260903004710 32 119 6.4 14.5 0.00 0.15 0.15 62 1005.3
20260903003711 32 130 8.0 16.1 0.00 0.15 0.15 61 1005.3
20260903002711 32 133 9.7 14.5 0.00 0.15 0.15 60 1005.3
20260903001711 32 117 8.0 12.9 0.00 0.15 0.15 58 1005.2
20260903000710 32 115 6.4 12.9 0.00 0.15 0.15 57 1005.3
20260902235710 33 148 9.7 14.5 0.00 0.15 0.15 56 1005.5
20260902234710 33 101 6.4 14.5 0.00 0.15 0.15 57 1005.6
20260902233711 33 155 6.4 11.3 0.00 0.15 0.15 56 1005.6
20260902232711 33 139 4.8 9.7 0.00 0.15 0.15 56 1005.6
20260902231710 33 161 6.4 11.3 0.00 0.15 0.15 56 1005.8
20260902230710 33 157 4.8 8.0 0.00 0.15 0.15 56 1005.9
20260902225710 33 166 4.8 8.0 0.00 0.15 0.15 55 1005.9
20260902224710 33 175 3.2 11.3 0.00 0.15 0.15 55 1006.1
20260902223711 33 176 8.0 12.9 0.00 0.15 0.15 55 1006.2
20260902222711 33 150 8.0 19.3 0.00 0.15 0.15 54 1006.3
20260902221711 33 178 6.4 16.1 0.00 0.15 0.15 54 1006.5
20260902220711 33 166 9.7 14.5 0.00 0.15 0.15 54 1006.5
20260902195710 33 163 14.5 27.4 0.00 0.15 0.15 55 1007.7
20260902193710 33 215 12.9 25.7 0.00 0.15 0.15 53 1007.6
20260902191710 33 187 8.0 19.3 0.00 0.15 0.15 56 1007.6
20260902190712 32 214 16.1 19.3 0.00 0.15 0.15 54 1007.7
20260902175711 32 182 16.1 22.5 0.00 0.15 0.15 56 1008.2
20260902174711 32 202 11.3 22.5 0.00 0.15 0.15 57 1008.3
20260902171710 31 204 12.9 22.5 0.00 0.15 0.15 59 1008.3
20260902170710 30 184 16.1 22.5 0.00 0.15 0.15 59 1008.2
20260902165710 30 221 8.0 14.5 0.00 0.15 0.15 62 1008.4
20260902164710 30 205 9.7 14.5 0.00 0.15 0.15 62 1008.3
20260902162710 30 204 8.0 19.3 0.00 0.15 0.15 63 1008.3
20260902161710 29 210 11.3 20.9 0.00 0.15 0.15 63 1008.2
20260902160711 28 192 9.7 19.3 0.00 0.15 0.15 66 1008.3
20260902154710 27 200 9.7 19.3 0.00 0.15 0.15 68 1008.3
20260902152710 26 195 12.9 20.9 0.00 0.15 0.15 71 1008.3
20260902151710 25 224 8.0 11.3 0.00 0.15 0.15 75 1008.3
20260902145711 24 182 4.8 12.9 0.00 0.15 0.15 75 1008.5
20260902144711 23 182 4.8 9.7 0.00 0.15 0.15 76 1008.5
20260902143711 23 224 4.8 9.7 0.00 0.15 0.15 76 1008.5
20260902142710 23 188 3.2 11.3 0.00 0.15 0.15 76 1008.5
20260902140710 23 194 3.2 4.8 0.00 0.15 0.15 78 1008.6
20260902135711 22 213 3.2 4.8 0.00 0.15 0.15 78 1008.6
20260902134711 22 179 1.6 4.8 0.00 0.15 0.15 78 1008.5
20260902133711 22 192 3.2 8.0 0.00 0.15 0.15 77 1008.6
20260902132711 22 183 4.8 9.7 0.00 0.15 0.15 78 1008.6
20260902130710 22 192 6.4 11.3 0.00 0.15 0.15 78 1008.7
20260902125710 22 159 1.6 8.0 0.00 0.15 0.15 79 1008.7
20260902124710 22 163 3.2 11.3 0.00 0.15 0.15 79 1008.7
20260902123711 21 182 4.8 11.3 0.00 0.15 0.15 80 1008.6
20260902122710 21 173 8.0 12.9 0.00 0.15 0.15 80 1008.6
20260902121710 21 175 6.4 16.1 0.00 0.15 0.15 82 1008.6
20260902120711 21 184 8.0 14.5 0.00 0.15 0.15 84 1008.5
20260902115710 21 176 4.8 11.3 0.03 0.15 0.15 86 1008.5
20260902114711 21 148 1.6 3.2 0.15 0.15 0.15 86 1008.4
20260902113710 21 148 0.0 3.2 0.15 0.15 0.15 84 1008.3
20260902112710 21 146 0.0 4.8 0.15 0.15 0.15 83 1008.4
20260902111710 21 192 3.2 9.7 0.15 0.15 0.15 81 1008.5
20260902110711 22 185 8.0 9.7 0.15 0.15 0.15 79 1008.6
20260902105711 23 186 12.9 20.9 0.13 0.13 0.13 75 1008.7
20260902104711 23 220 12.9 25.7 0.00 0.00 0.00 69 1008.7
20260902103710 23 214 4.8 8.0 0.00 0.00 0.00 69 1008.7
20260902102711 23 224 3.2 8.0 0.00 0.00 0.00 67 1008.7
20260902101710 24 200 4.8 8.0 0.00 0.00 0.00 66 1008.5
20260902100711 24 213 4.8 8.0 0.00 0.00 0.00 66 1008.6
20260902094710 24 172 4.8 11.3 0.00 0.00 0.00 65 1008.6
20260902093711 24 185 3.2 4.8 0.00 0.00 0.00 65 1008.5
20260902091711 23 186 14.5 24.1 0.00 0.00 0.00 71 1008.5
20260902090711 22 183 1.6 11.3 0.00 0.00 0.00 77 1008.5
20260902085711 22 44 1.6 4.8 0.00 0.00 0.00 81 1008.5
20260902084711 22 64 3.2 4.8 0.00 0.00 0.00 80 1008.6
20260902083711 23 56 3.2 4.8 0.00 0.00 0.00 80 1008.7
20260902082710 23 86 3.2 4.8 0.00 0.00 0.00 79 1008.8
20260902081710 23 105 4.8 9.7 0.00 0.00 0.00 79 1008.9
20260902080710 23 77 4.8 11.3 0.00 0.00 0.00 79 1009.0
20260902075710 23 36 8.0 14.5 0.00 0.00 0.00 79 1009.1
20260902074711 23 50 4.8 11.3 0.00 0.03 0.00 77 1009.4
20260902073710 24 48 6.4 14.5 0.00 0.03 0.00 76 1009.4
20260902072710 25 135 4.8 12.9 0.00 0.03 0.00 74 1009.3
20260902071711 25 80 8.0 20.9 0.00 0.03 0.00 74 1009.4
20260902070711 25 42 6.4 9.7 0.00 0.03 0.00 72 1009.4
20260902064711 26 302 4.8 12.9 0.00 0.03 0.00 71 1009.5
20260902063711 26 332 3.2 14.5 0.00 0.03 0.00 70 1009.3
20260902062710 26 40 9.7 20.9 0.00 0.03 0.00 71 1009.5
20260902061710 26 309 9.7 22.5 0.00 0.03 0.00 65 1008.9
20260902055710 25 238 4.8 11.3 0.00 0.03 0.00 78 1008.5
20260902054710 25 56 1.6 8.0 0.00 0.03 0.00 83 1008.4
20260902053711 25 96 0.0 1.6 0.00 0.03 0.00 82 1008.3
20260902052710 25 96 0.0 3.2 0.00 0.03 0.00 82 1008.4
20260902051711 25 100 1.6 4.8 0.00 0.03 0.00 82 1008.3
20260902050711 26 140 3.2 8.0 0.00 0.03 0.00 82 1008.1
20260902045710 26 140 1.6 4.8 0.00 0.03 0.03 81 1008.3
20260902044711 26 61 6.4 12.9 0.00 0.03 0.03 81 1008.1
20260902043710 26 100 4.8 12.9 0.00 0.03 0.03 81 1008.4
20260902042710 26 73 8.0 14.5 0.00 0.03 0.03 81 1008.4
20260902041710 26 63 3.2 12.9 0.00 0.03 0.03 81 1008.5